Weather observations for the past three days for
Hilton Head Island, Hilton Head Airport
Imperial (Metric)
Date Time (edt) Wind (mph) Vis. (mi.) Weather Sky Cond. Temperature (ºF) Relative Humidity Wind Chill (°F) Heat Index (°F) Pressure Precipitation (in)
Air Dwpt 6 hour altimeter (in) sea level (mb) 1 hr 3 hr 6 hr
Max. Min.
12 11:50 Calm 10.00 A Few Clouds FEW014 FEW070 84.2 78.8 84% 96 30.05 0.0
12 10:50 Calm 10.00 A Few Clouds FEW014 FEW034 84.2 78.8 84% 96 30.05 0.0
12 09:50 Calm 10.00 Mostly Cloudy BKN010 BKN060 84.2 78.8 84% 96 30.04 0.0
12 08:50 Calm 10.00 Partly Cloudy SCT010 84.2 78.8 84% 96 30.06 0.0
12 06:15 NE 6 10.00 Fair CLR 80.6 77 89% 87 29.95 0.0
12 05:55 N 9 10.00 A Few Clouds FEW090 80.6 77 89% 87 29.94 0.0
12 05:35 Calm 10.00 Partly Cloudy SCT090 78.8 75.2 89% 82 29.96 0.0
12 05:15 N 6 10.00 Mostly Cloudy BKN085 80.6 75.2 84% 86 29.96 0.0
12 04:55 N 9 10.00 Overcast OVC090 80.6 75.2 84% 86 29.95 0.0
12 04:35 Calm 10.00 Mostly Cloudy BKN085 80.6 75.2 84% 86 29.95 0.0
12 04:15 Calm 10.00 Partly Cloudy SCT085 80.6 75.2 84% 86 29.96 0.0
12 03:55 Vrbl 5 10.00 A Few Clouds FEW090 80.6 75.2 84% 86 29.95 0.0
12 03:35 E 8 10.00 Thunderstorm in Vicinity SCT060 SCT070 OVC090 82.4 75.2 79% 89 29.96 0.0
12 03:15 NE 7 10.00 Thunderstorm in Vicinity BKN060 OVC075 82.4 77 84% 91 29.97 0.0
12 02:55 Calm 10.00 Thunderstorm in Vicinity SCT060 OVC075 82.4 77 84% 91 29.96 0.0
12 02:35 Calm 10.00 Overcast FEW055 OVC080 80.6 78.8 94% 88 29.97 0.0
12 02:15 Calm 10.00 Overcast BKN075 OVC090 82.4 78.8 89% 92 29.97 0.0
12 01:55 NE 8 10.00 Mostly Cloudy BKN070 BKN095 82.4 77 84% 91 29.98 0.0
12 01:35 NE 6 10.00 Mostly Cloudy SCT070 BKN095 82.4 77 84% 91 29.97 0.0
12 01:15 Calm 8.00 Overcast OVC070 82.4 73.4 74% 88 29.97 0.0
12 00:55 Calm 10.00 Overcast BKN070 OVC085 80.6 73.4 79% 85 29.97 0.0
12 00:35 Calm 10.00 Overcast OVC070 80.6 73.4 79% 85 29.97 0.0
12 00:15 Calm 10.00 Mostly Cloudy BKN070 78.8 73.4 84% 82 29.97 0.0
11 23:55 Calm 10.00 A Few Clouds FEW070 78.8 73.4 84% 82 29.97 0.0
11 23:35 Calm 10.00 Fair CLR 78.8 73.4 84% 82 29.96 0.0
11 23:15 Calm 10.00 Fair CLR 78.8 71.6 79% 82 29.95 0.0
11 22:55 Calm 10.00 Fair CLR 78.8 71.6 79% 82 29.94 0.0
11 22:35 Calm 10.00 Fair CLR 80.6 71.6 74% 85 29.94 0.0
11 22:15 Calm 10.00 Fair CLR 80.6 71.6 74% 85 29.94 0.0
11 21:55 Calm 10.00 Fair CLR 80.6 71.6 74% 85 29.95 0.0
11 21:35 Calm 10.00 Fair CLR 80.6 71.6 74% 85 29.94 0.0
11 21:15 Calm 10.00 Fair CLR 80.6 69.8 70% 84 29.94 0.0
11 20:55 Calm 10.00 Fair CLR 80.6 71.6 74% 85 29.94 0.0
11 18:50 Vrbl 6 10.00 Fair CLR 87.8 68 52% 91 29.93 0.0
11 17:50 Calm 10.00 Fair CLR 89.6 68 49% 93 29.92 0.0
11 16:50 Vrbl 3 10.00 Fair CLR 89.6 69.8 52% 95 29.93 0.0
11 14:50 Calm 10.00 Partly Cloudy SCT045 91.4 66.2 44% 94 29.94 0.0
11 11:50 NE 10 10.00 Partly Cloudy SCT047 89.6 69.8 52% 95 29.94 0.0
11 10:50 NE 3 G 12 10.00 Fair CLR 86 71.6 62% 92 29.95 0.0
11 08:50 N 8 10.00 Fair CLR 80.6 69.8 70% 84 29.94 0.0
11 07:50 Calm 10.00 Fair CLR 78.8 69.8 74% 81 29.94 0.0
11 06:50 Calm 10.00 Fair CLR 75.2 71.6 89% 75 29.93 0.0
11 06:15 Calm 10.00 Fair CLR 77 69.8 79% 79 29.91 0.0
11 05:55 Calm 10.00 Fair CLR 77 69.8 79% 79 29.91 0.0
11 05:35 Calm 10.00 Fair CLR 77 69.8 79% 79 29.91 0.0
11 05:15 Calm 10.00 Fair CLR 78.8 69.8 74% 81 29.91 0.0
11 04:55 Calm 10.00 Fair CLR 78.8 69.8 74% 81 29.91 0.0
11 04:35 Calm 10.00 Fair CLR 78.8 69.8 74% 81 29.91 0.0
11 04:15 NW 5 10.00 Fair CLR 78.8 69.8 74% 81 29.91 0.0
11 03:55 Calm 10.00 Fair CLR 80.6 69.8 70% 84 29.9 0.0
11 03:35 Calm 10.00 Fair CLR 80.6 69.8 70% 84 29.9 0.0
11 03:15 Vrbl 5 10.00 Fair CLR 80.6 69.8 70% 84 29.9 0.0
11 02:35 NW 6 G 13 10.00 Fair CLR 82.4 71.6 70% 87 29.91 0.0
11 02:15 Calm 10.00 Fair CLR 82.4 73.4 74% 88 29.9 0.0
11 01:35 Vrbl 3 10.00 Fair CLR 82.4 77 84% 91 29.91 0.0
11 01:15 Vrbl 7 G 13 10.00 Fair CLR 82.4 77 84% 91 29.91 0.0
11 00:55 W 7 G 17 10.00 Fair CLR 82.4 77 84% 91 29.91 0.0
11 00:35 W 5 G 15 10.00 Fair CLR 82.4 77 84% 91 29.9 0.0
11 00:15 W 8 10.00 Fair CLR 82.4 77 84% 91 29.9 0.0
10 23:55 W 10 10.00 Fair CLR 82.4 77 84% 91 29.9 0.0
10 23:35 W 8 10.00 Fair CLR 84.2 77 79% 94 29.9 0.0
10 23:15 W 8 G 14 10.00 Fair CLR 84.2 77 79% 94 29.9 0.0
10 22:55 Vrbl 5 G 13 10.00 Fair CLR 84.2 77 79% 94 29.9 0.0
10 22:35 Vrbl 6 G 14 10.00 Fair CLR 84.2 77 79% 94 29.9 0.0
10 22:15 Calm 10.00 Fair CLR 84.2 78.8 84% 96 29.9 0.0
10 21:55 SW 5 G 13 10.00 Partly Cloudy FEW042 SCT049 86 78.8 79% 99 29.9 0.0
10 21:35 SW 6 G 13 10.00 Partly Cloudy SCT045 86 78.8 79% 99 29.9 0.0
10 21:15 SW 3 10.00 A Few Clouds FEW046 86 78.8 79% 99 29.9 0.0
10 20:55 Calm 10.00 Fair CLR 86 78.8 79% 99 29.9 0.0
10 18:50 Calm 10.00 A Few Clouds FEW045 91.4 73.4 56% 100 29.89 0.0
10 17:50 Vrbl 6 G 12 10.00 Mostly Cloudy BKN060 91.4 73.4 56% 100 29.89 0.0
10 15:50 Calm 10.00 A Few Clouds FEW041 FEW050 87.8 78.8 75% 102 29.89 0.0
10 14:50 Calm 10.00 Partly Cloudy SCT040 91.4 77 63% 105 29.91 0.0
10 12:50 NW 8 G 15 10.00 A Few Clouds FEW033 89.6 75.2 63% 100 29.94 0.0
10 11:50 NW 5 10.00 A Few Clouds FEW023 89.6 77 67% 103 29.94 0.0
10 10:50 NW 5 G 15 10.00 Partly Cloudy SCT023 87.8 77 70% 100 29.95 0.0
10 09:50 NW 3 G 16 10.00 A Few Clouds FEW018 86 77 75% 97 29.95 0.0
10 08:50 W 3 G 16 10.00 Fair CLR 82.4 77 84% 91 29.95 0.0
10 07:50 W 6 G 13 10.00 Fair CLR 80.6 77 89% 87 29.95 0.0
10 06:50 W 9 10.00 Fair CLR 78.8 77 94% 83 29.95 0.0
10 06:15 W 9 10.00 Overcast OVC090 78.8 77 94% 83 29.93 0.0
10 05:55 Vrbl 6 10.00 Overcast OVC085 78.8 77 94% 83 29.93 0.0
10 05:35 W 8 10.00 Overcast OVC080 78.8 77 94% 83 29.93 0.0
10 05:15 W 6 G 13 10.00 Overcast OVC080 78.8 77 94% 83 29.93 0.0
10 04:55 Vrbl 7 10.00 Mostly Cloudy BKN075 78.8 77 94% 83 29.92 0.0
10 04:35 Vrbl 5 10.00 Mostly Cloudy BKN070 78.8 77 94% 83 29.92 0.0
10 04:15 W 7 G 14 10.00 Overcast OVC070 78.8 77 94% 83 29.92 0.0
10 03:55 W 6 G 14 10.00 Overcast OVC070 78.8 77 94% 83 29.92 0.0
10 03:35 W 9 10.00 Overcast OVC065 78.8 77 94% 83 29.92 0.0
10 03:15 W 6 10.00 Overcast OVC065 78.8 77 94% 83 29.93 0.0
10 02:55 W 6 10.00 Mostly Cloudy BKN065 78.8 77 94% 83 29.93 0.0
10 02:35 Vrbl 6 G 12 10.00 Fair CLR 78.8 77 94% 83 29.93 0.0
10 02:15 Calm 10.00 Fair CLR 78.8 77 94% 83 29.93 0.0
10 01:55 W 5 10.00 A Few Clouds FEW120 78.8 77 94% 83 29.93 0.0
10 01:35 Calm 10.00 A Few Clouds FEW120 78.8 77 94% 83 29.94 0.0
10 01:15 SW 5 10.00 Fair CLR 78.8 77 94% 83 29.94 0.0
10 00:55 SW 5 10.00 Fair CLR 78.8 78.8 100% 83 29.94 0.0
10 00:35 Calm 10.00 Fair CLR 78.8 77 94% 83 29.95 0.0
10 00:15 SW 5 10.00 Fair CLR 78.8 78.8 100% 83 29.95 0.0
09 23:55 Calm 9.00 Light Rain FEW050 FEW060 FEW070 78.8 77 94% 83 29.95 0.0
09 23:35 Calm 9.00 Light Rain SCT055 SCT070 SCT120 78.8 77 94% 83 29.96 0.0
09 23:15 SW 6 9.00 Light Rain SCT030 SCT050 BKN070 78.8 77 94% 83 29.96 0.0
09 22:55 Calm 5.00 Light Rain SCT026 BKN055 OVC085 78.8 77 94% 83 29.98 0.0
09 22:35 Calm 4.00 Thunderstorm in Vicinity Rain FEW013 SCT021 BKN025 78.8 77 94% 83 29.99 0.0
09 22:15 Calm 6.00 Thunderstorm in Vicinity Rain BKN019 BKN023 OVC065 77 77 100% 78 30.01 0.0
09 21:55 Calm 7.00 Thunderstorm in Vicinity Rain NULL 78.8 77 94% 83 30 0.0
09 21:35 S 6 1.75 Thunderstorm in Vicinity Rain OVC021 77 75.2 94% 78 29.98 0.0
09 21:15 Vrbl 3 2.00 Thunderstorm Heavy Rain BKN021 BKN028 OVC035 78.8 75.2 89% 82 29.98 0.0
09 20:55 E 9 G 16 10.00 Thunderstorm BKN035 BKN050 OVC075 84.2 77 79% 94 29.98 0.0
09 19:50 SW 14 G 20 10.00 A Few Clouds FEW018 86 78.8 79% 99 29.96 0.0
09 18:50 S 13 10.00 Fair CLR 86 78.8 79% 99 29.94 0.0
09 17:50 S 9 G 17 10.00 Fair CLR 87.8 78.8 75% 102 29.93 0.0
09 16:50 S 9 10.00 Fair CLR 89.6 78.8 71% 105 29.94 0.0
09 15:50 S 8 G 15 10.00 Mostly Cloudy FEW042 BKN048 87.8 82.4 84% 108 29.95 0.0
09 14:50 Calm 10.00 Mostly Cloudy FEW036 BKN046 89.6 78.8 71% 105 29.97 0.0
09 13:50 Calm 10.00 A Few Clouds FEW030 FEW038 89.6 78.8 71% 105 29.98 0.0
09 12:50 Calm 10.00 A Few Clouds FEW020 89.6 77 67% 103 30 0.0
Date Time (edt) Wind (mph) Vis. (mi.) Weather Sky Cond. Air Dwpt Max. Min. Relative Humidity Wind Chill (°F) Heat Index (°F) altimeter (in) sea level (mb) 1 hr 3 hr 6 hr
6 hour
Temperature (ºF) Pressure Precipitation (in)